Terminal Aerodrome Forecast
Issued by NWS

Home | Current Version | Previous Version | Text Only | Print | Product List | Glossary On
Versions: 1 2 3 4 5 6 7 8 9 10 11 12 13 14
000
FTPA31 PHFO 302322
TAFHKO
TAF
PHKO 302322Z 0100/0124 24010KT P6SM FEW030 SCT060
     FM010400 19006KT P6SM FEW030 BKN060
     FM010800 11005KT P6SM SCT060
     FM012000 24010KT P6SM SCT060=

USA.gov is the U.S. government's official web portal to all federal, state and local government web resources and services.